Location: Unspecified
(0.0000°N, 0.0000°E)
Time: 12:46:34
(UTC+00:00)

Vanguard 2 - Pass Details

Date: 28 November 2019
Orbit: 552 x 2938 km, 32.9° (Epoch: 12 July)

Event Time Altitude Azimuth Distance (km) Brightness Sun altitude
Rises 00:06:13 0° 223° (SW) 5,429 12.0 -68.3°
Reaches altitude 10° 00:09:32 10° 217° (SW) 4,708 11.6 -68.1°
Enters shadow 00:10:22 13° 216° (SW) 4,542 11.5 -68.1°
Maximum altitude 00:23:32 53° 143° (SE) 3,217 - -67.1°
Exits shadow 00:37:01 19° 77° (ENE) 4,993 11.6 -65.6°
Drops below altitude 10° 00:40:43 10° 72° (ENE) 5,716 11.9 -65.1°
Sets 00:45:11 0° 67° (ENE) 6,623 12.4 -64.6°
